Idaho Falls, ID

7:08 PM MDT on April 25, 2018 (GMT -0600)
Fanning

Weather History for KIDA - March, 2013

Change the Weather History Date:

Friday, March 8, 2013

  Actual Average Record
Temperature  
Mean Temperature 32 °F 33 °F  
Max Temperature 38 °F 43 °F 57 °F (1953)
Min Temperature 25 °F 23 °F -3 °F (1964)
Degree Days  
Heating Degree Days 33 32  
Month to date heating degree days 276 269  
Since 1 July heating degree days 5839 6071  
Cooling Degree Days 0 0  
Month to date cooling degree days 0 0  
Year to date cooling degree days 0 0  
Moisture  
Dew Point 28 °F    
Average Humidity 84    
Maximum Humidity 92    
Minimum Humidity 75    
Precipitation  
Precipitation 0.01 in 0.02 in 0.75 in (1987)
Month to date precipitation 0.12 0.22  
Year to date precipitation 0.52 1.57  
Sea Level Pressure  
Sea Level Pressure 29.90 in    
Wind  
Wind Speed 5 mph (NNW)    
Max Wind Speed 12 mph    
Max Gust Speed 13 mph    
Visibility 8 miles    
Events Snow    
T = Trace of Precipitation, MM = Missing Value Source: NWS Daily Summary

Daily Weather History Graph

Daily Weather History Graph

Search for Another Location

Airport or City:

Astronomy

Mar. 08, 2013 Rise Set
Actual Time 6:52 AM MST 6:26 PM MST
Civil Twilight 6:23 AM MST 6:54 PM MST
Nautical Twilight 5:50 AM MST 7:28 PM MST
Astronomical Twilight 5:17 AM MST 8:01 PM MST
Moon 4:44 AM MST (3/8) 3:21 PM MST (3/8)
Length of Visible Light 12h 31m
Length of Day
11h 34m
Waning Crescent, 11% of the Moon is Illuminated
Mar 8
Waning Crescent
Mar 11
New
Mar 19
First Quarter
Mar 27
Full
Apr 2
Last Quarter

Hourly Weather History & Observations

Time (MST) Temp. Windchill Dew Point Humidity Pressure Visibility Wind Dir Wind Speed Gust Speed Precip Events Conditions
12:53 AM 32.0 °F 24.2 °F 26.1 °F 79% 29.97 in 10.0 mi North 9.2 mph - N/A   Overcast
1:53 AM 30.9 °F 23.5 °F 27.0 °F 85% 29.96 in 10.0 mi North 8.1 mph - N/A   Mostly Cloudy
2:53 AM 30.9 °F 26.2 °F 26.1 °F 82% 29.94 in 10.0 mi North 4.6 mph - N/A   Overcast
3:53 AM 32.0 °F 27.5 °F 26.1 °F 79% 29.93 in 10.0 mi North 4.6 mph - N/A   Overcast
4:53 AM 30.9 °F 24.3 °F 27.0 °F 85% 29.93 in 10.0 mi North 6.9 mph - 0.00 in   Overcast
5:53 AM 30.9 °F 26.2 °F 27.0 °F 85% 29.93 in 10.0 mi North 4.6 mph - N/A   Overcast
6:22 AM 30.2 °F 24.3 °F 26.6 °F 86% 29.87 in 4.0 mi North 5.8 mph - 0.00 in Snow Light Snow
6:44 AM 30.2 °F 24.3 °F 28.4 °F 93% 29.87 in 9.0 mi North 5.8 mph - 0.00 in   Overcast
6:53 AM 30.9 °F 26.2 °F 28.0 °F 89% 29.92 in 10.0 mi North 4.6 mph - 0.00 in   Overcast
7:37 AM 30.2 °F 24.3 °F 28.4 °F 93% 29.87 in 2.5 mi North 5.8 mph - 0.00 in Snow Light Snow
8:27 AM 30.2 °F 24.3 °F 28.4 °F 93% 29.88 in 2.0 mi NNW 5.8 mph - 0.00 in Snow Light Snow
8:29 AM 30.2 °F 24.3 °F 28.4 °F 93% 29.88 in 1.5 mi NNW 5.8 mph - 0.01 in Snow Light Snow
8:53 AM 32.0 °F 27.5 °F 28.9 °F 88% 29.94 in 2.0 mi NNW 4.6 mph - 0.01 in Snow Light Snow
9:02 AM 32.0 °F 24.8 °F 28.4 °F 87% 29.88 in 1.8 mi NNW 8.1 mph - 0.00 in Snow Light Snow
9:10 AM 32.0 °F 25.6 °F 28.4 °F 87% 29.88 in 2.0 mi NNW 6.9 mph - 0.00 in Snow Light Snow
9:42 AM 32.0 °F 26.4 °F 28.4 °F 87% 29.88 in 5.0 mi NNW 5.8 mph - 0.00 in Snow Light Snow
9:53 AM 32.0 °F 26.4 °F 28.9 °F 88% 29.94 in 8.0 mi NNW 5.8 mph - 0.00 in   Overcast
10:53 AM 33.1 °F 25.5 °F 28.9 °F 85% 29.93 in 3.0 mi NNW 9.2 mph - 0.00 in Snow Light Snow
11:53 AM 34.0 °F 28.8 °F 30.0 °F 85% 29.92 in 10.0 mi NNW 5.8 mph - 0.00 in   Overcast
12:53 PM 35.1 °F 28.6 °F 30.9 °F 85% 29.90 in 10.0 mi NNW 8.1 mph - N/A   Overcast
1:53 PM 36.0 °F 32.1 °F 30.9 °F 82% 29.89 in 10.0 mi NNW 4.6 mph - N/A   Mostly Cloudy
2:00 PM 35.6 °F 31.7 °F 32.0 °F 87% 29.84 in 10.0 mi NNW 4.6 mph - N/A   Overcast
2:53 PM 37.0 °F 32.4 °F 30.9 °F 79% 29.88 in 10.0 mi NNW 5.8 mph - N/A   Mostly Cloudy
3:53 PM 37.9 °F 33.5 °F 30.9 °F 76% 29.88 in 10.0 mi NNW 5.8 mph - N/A   Scattered Clouds
4:53 PM 36.0 °F 32.1 °F 30.9 °F 82% 29.87 in 10.0 mi NNW 4.6 mph - N/A   Scattered Clouds
5:53 PM 35.1 °F - 30.0 °F 82% 29.88 in 10.0 mi Calm Calm - N/A   Scattered Clouds
6:53 PM 34.0 °F - 30.0 °F 85% 29.88 in 10.0 mi Calm Calm - N/A   Scattered Clouds
7:53 PM 33.1 °F - 28.9 °F 85% 29.90 in 10.0 mi Calm Calm - N/A   Overcast
8:22 PM 32.0 °F - 28.4 °F 87% 29.85 in 10.0 mi Calm Calm - N/A   Scattered Clouds
8:53 PM 30.9 °F 27.5 °F 27.0 °F 85% 29.91 in 10.0 mi NNW 3.5 mph - N/A   Clear
9:53 PM 27.0 °F - 23.0 °F 85% 29.93 in 10.0 mi Calm Calm - N/A   Clear
10:53 PM 28.9 °F 23.9 °F 26.1 °F 89% 29.93 in 10.0 mi North 4.6 mph - N/A   Clear
11:53 PM 26.1 °F 20.5 °F 23.0 °F 88% 29.94 in 7.0 mi NNW 4.6 mph - N/A   Clear